Pagina principale
METAR-TAF:

METAR-TAF

Aeroporti :

Aeroporto di Torino-Aeritalia

Torino, Italia

latitudine: 45-05-20N, longitudine: 007-36-20E, altezza: 288 m

Osservazione

Il bollettino è stato emesso 1 ora e 19 minuti fa, alle 06:50 UTC
Vento 5 kt da ovest/sud-ovest
Temperature 24°C
Umidità 69%
Pressione 1019 hPa
Visibilità 10 km o più
Nuvoloso ad un'altezza di 3500 ft
pioggia debole,

METAR: LIMA 180650Z 25005KT 9999 -RA BKN035 24/18 Q1019

Ora: 10:09 (08:09 UTC)


TAF: mancante

Osservazioni e previsioni meteorologiche di più di 4000 aeroporti (messaggi METAR e TAF).

Le stazioni disponibili sono rappresentate dai dischi gialli e rossi sulla carta.

Puntare il mouse per vedere il nome della stazione.

Clicca sopra per visualizzare le osservazioni e previsioni meteorologiche.

Per cambiare la mappa : fare clic sui pulsanti verdi con una croce nera per ingrandire, il pulsante verde con un trattino per diminuire, o sulla freccia verde per le mappe adiacenti.


METAR-TAF: